This is the latest recevied weather packets stored in our database for station/object WB5RFA. If no packets are shown the sender has not sent any weather packets the latest 10 day(s).
| Time | Temp. | Humidity | Pressure | Rain* | Wind** | Luminosity | Snow |
|---|---|---|---|---|---|---|---|
| 1777649591 | 14.44° C | 44% | 1017.6 hPa | 0 mm | - | - | - |
| 1777649110 | 14.44° C | 49% | 1017.7 hPa | 0 mm | - | - | - |
| 1777648631 | 13.89° C | 48% | 1017.6 hPa | 0 mm | - | - | - |
| 1777648151 | 13.33° C | 48% | 1017.6 hPa | 0 mm | - | - | - |
| 1777647670 | 13.33° C | 47% | 1017.6 hPa | 0 mm | - | - | - |
| 1777647191 | 13.89° C | 46% | 1017.6 hPa | 0 mm | - | - | - |
| 1777646711 | 13.33° C | 50% | 1017.5 hPa | 0 mm | - | - | - |
| 1777646232 | 12.78° C | 52% | 1017.6 hPa | 0 mm | - | - | - |
| 1777645751 | 12.78° C | 52% | 1017.6 hPa | 0 mm | - | - | - |
| 1777645270 | 12.22° C | 53% | 1017.6 hPa | 0 mm | - | - | - |
| 1777644792 | 12.22° C | 56% | 1017.6 hPa | 0 mm | - | - | - |
| 1777644311 | 11.67° C | 59% | 1017.5 hPa | 0 mm | - | - | - |
| 1777643830 | 11.67° C | 60% | 1017.6 hPa | 0 mm | - | - | - |
| 1777643352 | 11.11° C | 68% | 1017.7 hPa | 0 mm | - | - | - |
| 1777642871 | 10.56° C | 75% | 1017.8 hPa | 0 mm | - | - | - |
| 1777642392 | 9.44° C | 80% | 1017.8 hPa | 0 mm | - | - | - |
| 1777641911 | 8.89° C | 81% | 1017.8 hPa | 0 mm | - | - | - |
| 1777641432 | 7.78° C | 83% | 1018 hPa | 0 mm | - | - | - |
| 1777640951 | 7.22° C | 84% | 1017.9 hPa | 0 mm | - | - | - |
| 1777640470 | 6.67° C | 84% | 1017.8 hPa | 0 mm | - | - | - |
| 1777639992 | 6.11° C | 84% | 1017.7 hPa | 0 mm | - | - | - |
| 1777639511 | 5.56° C | 84% | 1017.8 hPa | 0 mm | - | - | - |
| 1777639030 | 5° C | 84% | 1017.8 hPa | 0 mm | - | - | - |
| 1777638552 | 5° C | 84% | 1017.9 hPa | 0 mm | - | - | - |
| 1777638071 | 4.44° C | 84% | 1018 hPa | 0 mm | - | - | - |
* Rain latest hour (hover to see other rain measurements)
** Current wind speed in m/s (hover to see current wind gust speed)